Regional Weather Roundup
Issued by NWS Columbia, SC

Home | Current Version | Previous Version | Text Only | Print | Product List | Glossary On
Versions: 1 2 3 4 5 6 7 8 9 10 11 12 13 14 15 16 17 18 19 20 21 22 23 24 25 26 27 28 29 30 31 32 33 34 35 36 37 38 39 40 41 42 43 44 45 46 47 48 49 50
000
ASUS42 KCAE 251810
RWRCAE
REGIONAL WEATHER ROUNDUP
NATIONAL WEATHER SERVICE COLUMBIA SC
200 PM EDT MON JUL 25 2016

NOTE: "FAIR" INDICATES FEW OR NO CLOUDS BELOW 12,000 FEET WITH NO
SIGNIFICANT WEATHER AND/OR OBSTRUCTIONS TO VISIBILITY.

NOT ALL STATIONS ARE QUALITY CONTROLLED BY THE NATIONAL
WEATHER SERVICE. USE DATA WITH CAUTION...ESPECIALLY
DEWPOINT OBSERVATIONS.

SCZ001>056-GAZ040-063>065-077-251900-
...UPSTATE SOUTH CAROLINA...

CITY           SKY/WX    TMP DP  RH WIND       PRES   REMARKS
ANDERSON       MOSUNNY   97  66  36 VRB5      30.03F HX 100
6HR MIN TEMP:  77; 6HR MAX TEMP:  97;

LIBERTY        CLEAR     95  69  43 SW6       30.03F HX 101
6HR MIN TEMP:  73; 6HR MAX TEMP:  95;

SPARTANBURG    SUNNY     93  68  43 SW7       30.03F HX  97
CLEMSON        CLOUDY    96  67  38 CALM      30.05F HX 100
6HR MIN TEMP:  80; 6HR MAX TEMP:  97;

GREENVILLE     MOSUNNY   95  65  37 VRB6      30.05F HX  97
6HR MIN TEMP:  79; 6HR MAX TEMP:  97;

GREENWOOD      MOSUNNY   95  70  44 VRB5      30.04F HX 101
6HR MIN TEMP:  79; 6HR MAX TEMP:  95;

GREER          CLOUDY    93  68  43 SE5       30.03F HX  97
6HR MIN TEMP:  79; 6HR MAX TEMP:  94;

ROCK HILL      SUNNY     96  70  42 W7        30.04F HX 102
6HR MIN TEMP:  78; 6HR MAX TEMP:  97;

CHESTER        CLEAR     93  68  43 CALM      30.04F HX  97
LAURENS        PTCLDY    95  70  43 S8        30.03F HX 101


...CENTRAL SOUTH CAROLINA...

CITY           SKY/WX    TMP DP  RH WIND       PRES   REMARKS
COLUMBIA APT   MOSUNNY   96  71  44 S12       30.02F HX 103
6HR MIN TEMP:  81; 6HR MAX TEMP:  96;

COLUMBIA OWENS SUNNY     94  72  48 S8        30.04F HX 102
6HR MIN TEMP:  81; 6HR MAX TEMP:  95;

MCENTIRE ANGB  MOSUNNY   94  72  49 S12       30.04F HX 101
6HR MIN TEMP:  79; 6HR MAX TEMP:  95;

ORANGEBURG     SUNNY     93  70  46 S7        30.05F HX  99
6HR MIN TEMP:  78; 6HR MAX TEMP:  94;

SUMTER SHAW    MOSUNNY   94  72  49 S9        30.01F HX 102
6HR MIN TEMP:  79; 6HR MAX TEMP:  94;

NEWBERRY       CLEAR     95  70  43 S5        30.06F HX 101
AIKEN          FAIR      91  70  49 S5        30.08F HX  97
MANNING        FAIR      90  68  48 SW8       30.05F
LANCASTER      CLEAR     97  66  36 S7        30.03F HX 100


...EASTERN AND COASTAL SOUTH CAROLINA...

CITY           SKY/WX    TMP DP  RH WIND       PRES   REMARKS
MYRTLE BEACH   MOSUNNY   90  72  55 S16G22    30.07F HX  96
N MYRTLE BCH   SUNNY     88  77  69 S16       30.06F HX 100
6HR MIN TEMP:  81; 6HR MAX TEMP:  89;

CONWAY         FAIR      90  73  58 S5        30.05F HAZE    HX  98
MARION           N/A     90  72  55 S10G16    30.04F HX  96
HARTSVILLE     FAIR      91  73  55 S9        30.03F HX 100
FLORENCE       SUNNY     93  73  52 S10       30.04F HX 102
6HR MIN TEMP:  80; 6HR MAX TEMP:  93;

DARLINGTON     SUNNY     91  76  61 SW9       30.04F HX 103
6HR MIN TEMP:  78; 6HR MAX TEMP:  91;

CHARLESTON APT MOSUNNY   91  73  55 S13       30.06F HX  99
6HR MIN TEMP:  83; 6HR MAX TEMP:  93;

MOUNT PLEASANT FAIR      90  73  58 S12G17    30.07S HX  98
WALTERBORO     CLEAR     95  68  41 SW3       30.06F HX  99
BEAUFORT       MOSUNNY   92  74  55 SE5       30.06F HX 101
6HR MIN TEMP:  82; 6HR MAX TEMP:  95;



...EASTERN GEORGIA...

CITY           SKY/WX    TMP DP  RH WIND       PRES   REMARKS
AUGUSTA BUSH F MOSUNNY   93  70  46 SW7       30.02F HX  99
6HR MIN TEMP:  76; 6HR MAX TEMP:  97;

AUGUSTA DANIEL SUNNY     95  72  47 VRB5      30.04F HX 103
6HR MIN TEMP:  79; 6HR MAX TEMP:  95;

WASHINGTON     FAIR      97  75  49 CALM      30.04F HX 109
CLAXTON        FAIR      94  70  46 S3        30.05S HX  99
6HR MIN TEMP:  74; 6HR MAX TEMP:  94;

STATESBORO     SUNNY     93  71  49 CALM      30.05F HX 100
6HR MIN TEMP:  78; 6HR MAX TEMP:  94;

SAVANNAH       MOSUNNY   94  69  44 S12G21    30.05F HX  99
6HR MIN TEMP:  78; 6HR MAX TEMP:  94;



...SOUTHERN NORTH CAROLINA...

CITY           SKY/WX    TMP DP  RH WIND       PRES   REMARKS
CHARLOTTE      MOSUNNY   95  68  41 SW9       30.03F HX  99
6HR MIN TEMP:  79; 6HR MAX TEMP:  96;

MONROE         PTSUNNY   96  71  44 S9        30.03F HX 103
6HR MIN TEMP:  78; 6HR MAX TEMP:  96;

WADESBORO      PTCLDY    95  71  44 SE6       30.02S HX 102
ROCKINGHAM     PTCLDY    92  74  54 S7        30.03F HX 102
RUTHERFORDTON    N/A     92  72  50 W5        30.05F HX  99
ASHEVILLE      SUNNY     91  66  43 VRB5      30.12F
6HR MIN TEMP:  71; 6HR MAX TEMP:  91;


$$



USA.gov is the U.S. government's official web portal to all federal, state and local government web resources and services.